FW8993 Weather Reports


time (UTC)temp
F
wind
direction
speed
knots
gust
knots
rain 1hr
in
rain 24hr
in
rain mn
in
humidity
%
barometer
mb
20260505040815 77 129 0.0 0.0 0.00 0.00 0.00 83 1017.2
20260505035815 77 111 0.9 0.9 0.00 0.00 0.00 83 1017.2
20260505034814 77 129 0.9 0.9 0.00 0.00 0.00 83 1017.2
20260505033814 77 128 0.0 0.9 0.00 0.00 0.00 84 1017.2
20260505032809 77 131 0.9 0.9 0.00 0.00 0.00 83 1017.3
20260505031808 77 140 0.9 0.9 0.00 0.00 0.00 84 1017.5
20260505030807 78 137 0.9 1.7 0.00 0.00 0.00 88 1017.6
20260505025804 78 140 0.9 0.9 0.00 0.00 0.00 88 1017.6
20260505024800 78 134 0.0 0.0 0.00 0.00 0.00 88 1017.4
20260505023800 78 141 0.9 1.7 0.00 0.00 0.00 87 1017.3
20260505022800 78 118 0.0 0.0 0.00 0.00 0.00 86 1017.2
20260505021800 80 140 0.0 0.0 0.00 0.00 0.00 85 1017.3
20260505020759 80 130 0.0 0.0 0.00 0.00 0.00 84 1016.9
20260505015757 80 134 0.0 0.0 0.00 0.00 0.00 83 1017.0
20260505014757 80 140 0.0 0.0 0.00 0.00 0.00 82 1017.2
20260505013757 81 134 0.9 1.7 0.00 0.00 0.00 81 1017.0
20260505012752 81 122 0.0 0.9 0.00 0.00 0.00 80 1016.9
20260505011751 81 108 0.9 0.9 0.00 0.00 0.00 80 1016.7
20260505010750 81 124 0.0 0.0 0.00 0.00 0.00 80 1016.8
20260505005748 81 131 1.7 1.7 0.00 0.00 0.00 79 1016.8
20260505004743 81 106 0.9 1.7 0.00 0.00 0.00 77 1016.3
20260505003742 81 127 0.9 0.9 0.00 0.00 0.00 75 1016.5
20260505002742 80 123 0.0 0.9 0.00 0.00 0.00 76 1016.4
20260505001737 81 127 0.9 0.9 0.00 0.00 0.00 75 1016.3
20260505000736 82 124 0.0 0.0 0.00 0.00 0.00 73 1016.2
20260504235736 82 109 0.9 0.9 0.00 0.00 0.00 72 1016.1
20260504234736 82 151 0.9 1.7 0.00 0.00 0.00 71 1016.1
20260504233735 82 155 0.9 0.9 0.00 0.00 0.00 71 1015.9
20260504232734 83 110 0.9 0.9 0.00 0.00 0.00 70 1015.9
20260504231734 83 129 0.9 1.7 0.00 0.00 0.00 69 1015.8
20260504230732 84 119 2.6 2.6 0.00 0.00 0.00 68 1015.7
20260504225729 84 137 3.5 4.3 0.00 0.00 0.00 67 1015.7
20260504224728 84 179 4.3 6.1 0.00 0.00 0.00 66 1015.6
20260504223727 84 136 5.2 6.1 0.00 0.00 0.00 65 1015.5
20260504222726 85 164 0.9 0.9 0.00 0.00 0.00 65 1015.6
20260504221726 85 161 3.5 5.2 0.00 0.00 0.00 65 1015.5
20260504220725 86 128 4.3 6.1 0.00 0.00 0.00 63 1015.4
20260504215720 86 157 4.3 5.2 0.00 0.00 0.00 63 1015.0
20260504214718 86 153 6.1 7.0 0.00 0.00 0.00 63 1014.9
20260504213718 87 186 2.6 2.6 0.00 0.00 0.00 61 1014.9
20260504212717 87 156 4.3 5.2 0.00 0.00 0.00 60 1014.6
20260504211716 87 184 7.0 7.8 0.00 0.00 0.00 58 1014.9
20260504210716 87 106 3.5 5.2 0.00 0.00 0.00 60 1014.8
20260504205716 87 177 4.3 5.2 0.00 0.00 0.00 58 1014.6
20260504204712 88 178 3.5 4.3 0.00 0.00 0.00 57 1014.7
20260504203709 88 120 4.3 7.0 0.00 0.00 0.00 57 1014.8
20260504202706 88 160 4.3 7.8 0.00 0.00 0.00 57 1014.6
20260504201700 88 147 3.5 5.2 0.00 0.00 0.00 57 1014.8
20260504200655 88 145 3.5 4.3 0.00 0.00 0.00 56 1014.7
20260504195653 88 197 6.1 7.0 0.00 0.00 0.00 56 1014.9
20260504194652 89 115 5.2 8.7 0.00 0.00 0.00 54 1015.0
20260504193650 89 152 4.3 5.2 0.00 0.00 0.00 55 1014.8
20260504192646 89 196 6.1 8.7 0.00 0.00 0.00 55 1015.0
20260504191642 89 200 7.8 8.7 0.00 0.00 0.00 53 1015.0
20260504190640 90 154 6.1 7.0 0.00 0.00 0.00 52 1015.1
20260504185639 89 167 5.2 7.8 0.00 0.00 0.00 52 1015.1
20260504184638 90 161 6.1 7.0 0.00 0.00 0.00 53 1014.9
20260504183636 90 163 8.7 11.3 0.00 0.00 0.00 51 1014.9
20260504182631 90 188 7.8 9.6 0.00 0.00 0.00 51 1015.1
20260504181631 90 130 8.7 9.6 0.00 0.00 0.00 50 1015.0
20260504180628 90 169 7.8 9.6 0.00 0.00 0.00 48 1015.4
20260504175623 90 103 5.2 7.0 0.00 0.00 0.00 47 1015.7
20260504174618 90 120 8.7 12.2 0.00 0.00 0.00 46 1015.7
20260504173617 90 115 3.5 4.3 0.00 0.00 0.00 46 1015.8
20260504172616 90 169 10.4 13.0 0.00 0.00 0.00 42 1016.2
20260504171615 90 138 6.1 9.6 0.00 0.00 0.00 43 1016.1
20260504170614 91 171 5.2 6.1 0.00 0.00 0.00 43 1016.0
20260504150548 89 136 5.2 6.1 0.00 0.00 0.00 54 1016.6
20260504140534 87 172 3.5 4.3 0.00 0.00 0.00 56 1016.8
20260504130527 85 192 2.6 2.6 0.00 0.00 0.00 61 1017.0
20260504110502 74 33 0.0 0.0 0.00 0.00 0.00 83 1016.9
20260504100448 71 141 0.0 0.0 0.00 0.00 0.00 89 1016.1
20260504081423 71 123 0.0 0.0 0.00 0.00 0.00 87 1015.9
20260504080422 71 132 0.0 0.0 0.00 0.00 0.00 87 1015.8
20260504070402 72 138 0.0 0.0 0.00 0.00 0.00 86 1015.8
20260504050328 74 143 0.0 0.0 0.00 0.00 0.00 81 1016.6